Time,TemperatureF,DewpointF,PressureIn,WindDirection,WindDirectionDegrees,WindSpeedMPH,WindSpeedGustMPH,Humidity,HourlyPrecipIn,Conditions,Clouds,dailyrainin,SoftwareType,DateUTC
2013-02-06 00:02:00,55.0,50.0,29.99,WSW,254,4.0,8.0,82,0.00,,,0.00,,2013-02-06 05:02:00,
2013-02-06 00:12:00,55.0,50.0,29.99,WSW,254,4.0,8.0,82,0.00,,,0.00,,2013-02-06 05:12:00,
2013-02-06 00:22:00,55.0,49.0,29.99,WSW,252,4.0,9.0,81,0.00,,,0.00,,2013-02-06 05:22:00,
2013-02-06 00:32:00,55.0,49.0,29.99,West,266,2.0,6.0,81,0.00,,,0.00,,2013-02-06 05:32:00,
2013-02-06 00:42:00,55.0,49.0,29.99,West,266,2.0,6.0,81,0.00,,,0.00,,2013-02-06 05:42:00,
2013-02-06 00:53:00,55.0,49.0,29.99,WSW,257,2.0,6.0,81,0.00,,,0.00,,2013-02-06 05:53:00,
2013-02-06 01:01:00,55.0,49.0,29.99,WSW,257,2.0,6.0,81,0.00,,,0.00,,2013-02-06 06:01:00,
2013-02-06 01:11:00,55.0,49.0,29.99,WSW,257,2.0,6.0,81,0.00,,,0.00,,2013-02-06 06:11:00,
2013-02-06 01:22:00,55.0,49.0,30.00,West,264,2.0,6.0,81,0.00,,,0.00,,2013-02-06 06:22:00,
2013-02-06 01:32:00,55.0,49.0,30.00,West,264,2.0,6.0,81,0.00,,,0.00,,2013-02-06 06:32:00,
2013-02-06 01:42:00,55.0,49.0,30.00,West,264,2.0,6.0,81,0.00,,,0.00,,2013-02-06 06:42:00,
2013-02-06 01:51:00,54.0,49.0,30.00,SW,227,2.0,7.0,82,0.00,,,0.00,,2013-02-06 06:51:00,
2013-02-06 02:02:00,54.0,49.0,30.00,West,260,2.0,6.0,83,0.00,,,0.00,,2013-02-06 07:02:00,
2013-02-06 02:11:00,54.0,49.0,30.00,West,260,2.0,6.0,83,0.00,,,0.00,,2013-02-06 07:11:00,
2013-02-06 02:22:00,54.0,49.0,30.00,WSW,254,3.0,7.0,83,0.00,,,0.00,,2013-02-06 07:22:00,
2013-02-06 02:32:00,54.0,49.0,30.00,West,263,3.0,7.0,83,0.00,,,0.00,,2013-02-06 07:32:00,
2013-02-06 02:42:00,54.0,49.0,30.00,West,263,3.0,7.0,83,0.00,,,0.00,,2013-02-06 07:42:00,
2013-02-06 02:51:00,54.0,49.0,30.00,West,262,3.0,7.0,84,0.00,,,0.00,,2013-02-06 07:51:00,
2013-02-06 03:01:00,54.0,49.0,30.00,West,259,1.0,7.0,84,0.00,,,0.00,,2013-02-06 08:01:00,
2013-02-06 03:11:00,54.0,49.0,30.00,West,259,1.0,7.0,84,0.00,,,0.00,,2013-02-06 08:11:00,
2013-02-06 03:21:00,53.0,48.0,30.01,SW,236,2.0,6.0,84,0.00,,,0.00,,2013-02-06 08:21:00,
2013-02-06 03:32:00,53.0,48.0,30.01,West,267,1.0,4.0,84,0.00,,,0.00,,2013-02-06 08:32:00,
2013-02-06 03:42:00,53.0,48.0,30.01,West,267,1.0,4.0,84,0.00,,,0.00,,2013-02-06 08:42:00,
2013-02-06 03:53:00,53.0,48.0,30.01,West,271,1.0,4.0,84,0.00,,,0.00,,2013-02-06 08:53:00,
2013-02-06 04:02:00,53.0,48.0,30.01,West,279,0.0,4.0,84,0.00,,,0.00,,2013-02-06 09:02:00,
2013-02-06 04:11:00,53.0,48.0,30.01,West,279,0.0,4.0,84,0.00,,,0.00,,2013-02-06 09:11:00,
2013-02-06 04:21:00,53.0,48.0,30.01,WSW,250,3.0,5.0,84,0.00,,,0.00,,2013-02-06 09:21:00,
2013-02-06 04:32:00,53.0,48.0,30.01,West,264,0.0,4.0,84,0.00,,,0.00,,2013-02-06 09:32:00,
2013-02-06 04:42:00,53.0,48.0,30.01,West,264,0.0,4.0,84,0.00,,,0.00,,2013-02-06 09:42:00,
2013-02-06 04:52:00,52.0,48.0,30.02,WSW,257,1.0,3.0,85,0.00,,,0.00,,2013-02-06 09:52:00,
2013-02-06 05:01:00,52.0,48.0,30.02,West,263,1.0,5.0,86,0.00,,,0.00,,2013-02-06 10:01:00,
2013-02-06 05:11:00,52.0,48.0,30.02,West,263,1.0,5.0,86,0.00,,,0.00,,2013-02-06 10:11:00,
2013-02-06 05:21:00,52.0,48.0,30.02,West,265,2.0,5.0,87,0.00,,,0.00,,2013-02-06 10:21:00,
2013-02-06 05:32:00,51.0,48.0,30.03,WSW,250,2.0,6.0,88,0.00,,,0.00,,2013-02-06 10:32:00,
2013-02-06 05:42:00,51.0,48.0,30.03,WSW,250,2.0,6.0,88,0.00,,,0.00,,2013-02-06 10:42:00,
2013-02-06 05:52:00,51.0,48.0,30.03,WSW,251,1.0,4.0,88,0.00,,,0.00,,2013-02-06 10:52:00,
2013-02-06 06:01:00,51.0,48.0,30.03,WSW,251,1.0,4.0,88,0.00,,,0.00,,2013-02-06 11:01:00,
2013-02-06 06:11:00,51.0,48.0,30.03,WSW,251,1.0,4.0,88,0.00,,,0.00,,2013-02-06 11:11:00,
2013-02-06 06:22:00,51.0,48.0,30.04,WSW,254,2.0,6.0,88,0.00,,,0.00,,2013-02-06 11:22:00,
2013-02-06 06:32:00,51.0,48.0,30.05,West,277,1.0,4.0,88,0.00,,,0.00,,2013-02-06 11:32:00,
2013-02-06 06:42:00,51.0,48.0,30.05,West,277,1.0,4.0,88,0.00,,,0.00,,2013-02-06 11:42:00,
2013-02-06 06:52:00,50.0,47.0,30.06,WNW,285,3.0,7.0,89,0.00,,,0.00,,2013-02-06 11:52:00,
2013-02-06 07:02:00,50.0,47.0,30.06,West,267,2.0,6.0,89,0.00,,,0.00,,2013-02-06 12:02:00,
2013-02-06 07:12:00,50.0,47.0,30.06,West,267,2.0,6.0,89,0.00,,,0.00,,2013-02-06 12:12:00,
2013-02-06 07:22:00,50.0,47.0,30.07,WNW,296,1.0,5.0,90,0.00,,,0.00,,2013-02-06 12:22:00,
2013-02-06 07:32:00,50.0,47.0,30.07,West,277,3.0,5.0,90,0.00,,,0.00,,2013-02-06 12:32:00,
2013-02-06 07:42:00,50.0,47.0,30.07,West,277,3.0,5.0,90,0.00,,,0.00,,2013-02-06 12:42:00,
2013-02-06 07:52:00,50.0,47.0,30.08,West,281,2.0,6.0,91,0.00,,,0.00,,2013-02-06 12:52:00,
2013-02-06 08:02:00,50.0,47.0,30.09,NW,304,2.0,5.0,91,0.00,,,0.00,,2013-02-06 13:02:00,
2013-02-06 08:12:00,50.0,47.0,30.09,NW,304,2.0,5.0,91,0.00,,,0.00,,2013-02-06 13:12:00,
2013-02-06 08:22:00,50.0,47.0,30.09,WNW,283,2.0,7.0,91,0.00,,,0.00,,2013-02-06 13:22:00,
2013-02-06 08:32:00,51.0,48.0,30.10,West,265,3.0,7.0,90,0.00,,,0.00,,2013-02-06 13:32:00,
2013-02-06 08:42:00,51.0,48.0,30.10,West,265,3.0,7.0,90,0.00,,,0.00,,2013-02-06 13:42:00,
2013-02-06 08:52:00,51.0,48.0,30.10,West,265,3.0,7.0,90,0.00,,,0.00,,2013-02-06 13:52:00,
2013-02-06 09:02:00,54.0,50.0,30.10,West,271,3.0,8.0,85,0.00,,,0.00,,2013-02-06 14:02:00,
2013-02-06 09:11:00,54.0,50.0,30.10,West,271,3.0,8.0,85,0.00,,,0.00,,2013-02-06 14:11:00,
2013-02-06 09:22:00,56.0,51.0,30.10,West,273,3.0,9.0,82,0.00,,,0.00,,2013-02-06 14:22:00,
2013-02-06 09:32:00,57.0,51.0,30.11,NW,310,3.0,9.0,80,0.00,,,0.00,,2013-02-06 14:32:00,
2013-02-06 09:42:00,58.0,51.0,30.11,NNE,27,4.0,9.0,77,0.00,,,0.00,,2013-02-06 14:42:00,
2013-02-06 09:52:00,58.0,51.0,30.11,NNE,27,4.0,9.0,77,0.00,,,0.00,,2013-02-06 14:52:00,
2013-02-06 10:02:00,59.0,51.0,30.11,WNW,288,3.0,10.0,75,0.00,,,0.00,,2013-02-06 15:02:00,
2013-02-06 10:11:00,60.0,51.0,30.12,West,273,2.0,8.0,71,0.00,,,0.00,,2013-02-06 15:11:00,
2013-02-06 10:21:00,60.0,51.0,30.12,West,273,2.0,8.0,71,0.00,,,0.00,,2013-02-06 15:21:00,
2013-02-06 10:32:00,61.0,51.0,30.12,NNE,19,1.0,5.0,69,0.00,,,0.00,,2013-02-06 15:32:00,
2013-02-06 10:42:00,61.0,51.0,30.12,NNE,19,1.0,5.0,69,0.00,,,0.00,,2013-02-06 15:42:00,
2013-02-06 10:52:00,63.0,49.0,30.12,NNW,333,4.0,6.0,61,0.00,,,0.00,,2013-02-06 15:52:00,
2013-02-06 11:01:00,63.0,48.0,30.12,West,272,1.0,5.0,59,0.00,,,0.00,,2013-02-06 16:01:00,
2013-02-06 11:11:00,63.0,48.0,30.12,West,272,1.0,5.0,59,0.00,,,0.00,,2013-02-06 16:11:00,
2013-02-06 11:21:00,65.0,48.0,30.13,NNW,330,4.0,8.0,54,0.00,,,0.00,,2013-02-06 16:21:00,
2013-02-06 11:32:00,66.0,47.0,30.13,NNE,19,2.0,7.0,51,0.00,,,0.00,,2013-02-06 16:32:00,
2013-02-06 11:42:00,66.0,47.0,30.13,NNE,19,2.0,7.0,51,0.00,,,0.00,,2013-02-06 16:42:00,
2013-02-06 11:52:00,65.0,49.0,30.13,ESE,107,0.0,5.0,57,0.00,,,0.00,,2013-02-06 16:52:00,
2013-02-06 12:02:00,64.0,50.0,30.13,ESE,117,1.0,4.0,61,0.00,,,0.00,,2013-02-06 17:02:00,
2013-02-06 12:11:00,61.0,51.0,30.12,ESE,119,3.0,7.0,69,0.00,,,0.00,,2013-02-06 17:11:00,
2013-02-06 12:22:00,61.0,51.0,30.12,ESE,119,3.0,7.0,69,0.00,,,0.00,,2013-02-06 17:22:00,
2013-02-06 12:32:00,60.0,51.0,30.12,SE,146,1.0,7.0,73,0.00,,,0.00,,2013-02-06 17:32:00,
2013-02-06 12:42:00,59.0,52.0,30.12,SSW,201,1.0,7.0,77,0.00,,,0.00,,2013-02-06 17:42:00,
2013-02-06 12:52:00,59.0,52.0,30.12,SSW,201,1.0,7.0,77,0.00,,,0.00,,2013-02-06 17:52:00,
2013-02-06 13:02:00,58.0,51.0,30.11,SSE,149,4.0,7.0,77,0.00,,,0.00,,2013-02-06 18:02:00,
2013-02-06 13:11:00,59.0,51.0,30.11,SE,130,2.0,6.0,76,0.00,,,0.00,,2013-02-06 18:11:00,
2013-02-06 13:23:00,59.0,51.0,30.11,SE,130,2.0,6.0,76,0.00,,,0.00,,2013-02-06 18:23:00,
2013-02-06 13:32:00,60.0,52.0,30.10,SSE,152,2.0,4.0,74,0.00,,,0.00,,2013-02-06 18:32:00,
2013-02-06 13:52:00,60.0,52.0,30.10,SSE,157,2.0,5.0,74,0.00,,,0.00,,2013-02-06 18:52:00,
2013-02-06 14:02:00,60.0,52.0,30.10,SSE,163,4.0,8.0,74,0.00,,,0.00,,2013-02-06 19:02:00,
2013-02-06 14:21:00,58.0,51.0,30.09,SSE,151,4.0,10.0,78,0.00,,,0.00,,2013-02-06 19:21:00,
2013-02-06 14:32:00,59.0,52.0,30.09,SE,136,3.0,8.0,78,0.00,,,0.00,,2013-02-06 19:32:00,
2013-02-06 14:52:00,58.0,51.0,30.09,SE,132,4.0,7.0,78,0.00,,,0.00,,2013-02-06 19:52:00,
2013-02-06 15:01:00,59.0,52.0,30.09,SE,138,3.0,6.0,78,0.00,,,0.00,,2013-02-06 20:01:00,
2013-02-06 15:11:00,59.0,51.0,30.09,SE,131,2.0,5.0,76,0.00,,,0.00,,2013-02-06 20:11:00,
2013-02-06 15:21:00,59.0,51.0,30.09,SE,131,2.0,5.0,76,0.00,,,0.00,,2013-02-06 20:21:00,
2013-02-06 15:32:00,59.0,50.0,30.09,SE,137,1.0,7.0,73,0.00,,,0.00,,2013-02-06 20:32:00,
2013-02-06 15:52:00,58.0,50.0,30.09,SE,144,3.0,7.0,76,0.00,,,0.00,,2013-02-06 20:52:00,
2013-02-06 16:02:00,59.0,52.0,30.09,SSE,164,4.0,7.0,77,0.00,,,0.00,,2013-02-06 21:02:00,
2013-02-06 16:21:00,58.0,51.0,30.09,SE,146,3.0,6.0,77,0.00,,,0.00,,2013-02-06 21:21:00,
2013-02-06 16:32:00,59.0,51.0,30.09,SE,132,1.0,5.0,76,0.00,,,0.00,,2013-02-06 21:32:00,
2013-02-06 16:51:00,59.0,51.0,30.09,SE,137,1.0,5.0,75,0.00,,,0.00,,2013-02-06 21:51:00,
2013-02-06 17:01:00,59.0,50.0,30.10,SSE,153,2.0,6.0,72,0.00,,,0.00,,2013-02-06 22:01:00,
2013-02-06 17:11:00,59.0,50.0,30.10,SSE,153,2.0,6.0,72,0.00,,,0.00,,2013-02-06 22:11:00,
2013-02-06 17:21:00,59.0,50.0,30.10,SE,146,2.0,5.0,73,0.00,,,0.00,,2013-02-06 22:21:00,
2013-02-06 17:32:00,58.0,49.0,30.10,South,188,0.0,4.0,73,0.00,,,0.00,,2013-02-06 22:32:00,
2013-02-06 17:42:00,58.0,49.0,30.10,South,188,0.0,4.0,73,0.00,,,0.00,,2013-02-06 22:42:00,
2013-02-06 17:52:00,59.0,49.0,30.11,ESE,117,1.0,3.0,69,0.00,,,0.00,,2013-02-06 22:52:00,
2013-02-06 18:01:00,58.0,49.0,30.11,South,171,0.0,3.0,71,0.00,,,0.00,,2013-02-06 23:01:00,
2013-02-06 18:11:00,58.0,49.0,30.11,South,171,0.0,3.0,71,0.00,,,0.00,,2013-02-06 23:11:00,
2013-02-06 18:21:00,57.0,49.0,30.12,SSE,159,0.0,4.0,74,0.00,,,0.00,,2013-02-06 23:21:00,
2013-02-06 18:32:00,57.0,50.0,30.12,South,182,0.0,5.0,76,0.00,,,0.00,,2013-02-06 23:32:00,
2013-02-06 18:42:00,57.0,50.0,30.12,South,182,0.0,5.0,76,0.00,,,0.00,,2013-02-06 23:42:00,
2013-02-06 18:52:00,56.0,49.0,30.13,South,182,0.0,1.0,76,0.00,,,0.00,,2013-02-06 23:52:00,
2013-02-06 19:02:00,56.0,49.0,30.13,South,182,0.0,0.0,76,0.00,,,0.00,,2013-02-07 00:02:00,
2013-02-06 19:11:00,56.0,49.0,30.13,South,182,0.0,0.0,76,0.00,,,0.00,,2013-02-07 00:11:00,
2013-02-06 19:21:00,55.0,48.0,30.14,South,182,0.0,0.0,78,0.00,,,0.00,,2013-02-07 00:21:00,
2013-02-06 19:32:00,54.0,48.0,30.15,South,182,0.0,2.0,80,0.00,,,0.00,,2013-02-07 00:32:00,
2013-02-06 19:42:00,54.0,48.0,30.15,South,182,0.0,2.0,80,0.00,,,0.00,,2013-02-07 00:42:00,
2013-02-06 19:52:00,54.0,49.0,30.16,NNE,12,0.0,3.0,82,0.00,,,0.00,,2013-02-07 00:52:00,
2013-02-06 20:01:00,54.0,50.0,30.16,NNE,18,0.0,3.0,85,0.00,,,0.00,,2013-02-07 01:01:00,
2013-02-06 20:11:00,54.0,50.0,30.16,NNE,18,0.0,3.0,85,0.00,,,0.00,,2013-02-07 01:11:00,
2013-02-06 20:21:00,54.0,50.0,30.16,NNE,22,0.0,3.0,86,0.00,,,0.00,,2013-02-07 01:21:00,
2013-02-06 20:32:00,54.0,50.0,30.16,NE,38,0.0,3.0,87,0.00,,,0.00,,2013-02-07 01:32:00,
2013-02-06 20:42:00,54.0,50.0,30.16,NE,38,0.0,3.0,87,0.00,,,0.00,,2013-02-07 01:42:00,
2013-02-06 20:52:00,54.0,50.0,30.16,North,5,0.0,4.0,87,0.00,,,0.00,,2013-02-07 01:52:00,
2013-02-06 21:02:00,53.0,50.0,30.17,NE,44,0.0,3.0,88,0.00,,,0.00,,2013-02-07 02:02:00,
2013-02-06 21:11:00,53.0,50.0,30.17,NE,44,0.0,3.0,88,0.00,,,0.00,,2013-02-07 02:11:00,
2013-02-06 21:21:00,53.0,50.0,30.17,NE,51,0.0,3.0,89,0.00,,,0.00,,2013-02-07 02:21:00,
2013-02-06 21:32:00,53.0,50.0,30.17,NNE,27,0.0,5.0,90,0.00,,,0.00,,2013-02-07 02:32:00,
2013-02-06 21:42:00,53.0,50.0,30.17,NNE,27,0.0,5.0,90,0.00,,,0.00,,2013-02-07 02:42:00,
2013-02-06 21:51:00,53.0,50.0,30.17,NNE,27,0.0,5.0,90,0.00,,,0.00,,2013-02-07 02:51:00,
2013-02-06 22:02:00,53.0,50.0,30.17,NE,44,1.0,5.0,89,0.00,,,0.00,,2013-02-07 03:02:00,
2013-02-06 22:11:00,53.0,50.0,30.16,NNE,15,2.0,5.0,90,0.00,,,0.00,,2013-02-07 03:11:00,
2013-02-06 22:21:00,53.0,50.0,30.16,NNE,15,2.0,5.0,90,0.00,,,0.00,,2013-02-07 03:21:00,
2013-02-06 22:32:00,53.0,50.0,30.16,NNE,23,0.0,5.0,90,0.00,,,0.00,,2013-02-07 03:32:00,
2013-02-06 22:42:00,53.0,50.0,30.16,NNE,23,0.0,5.0,90,0.00,,,0.00,,2013-02-07 03:42:00,
2013-02-06 22:52:00,53.0,50.0,30.17,NE,52,1.0,5.0,90,0.00,,,0.00,,2013-02-07 03:52:00,
2013-02-06 23:01:00,53.0,50.0,30.18,NE,36,0.0,4.0,90,0.00,,,0.00,,2013-02-07 04:01:00,
2013-02-06 23:22:00,53.0,50.0,30.18,NE,39,1.0,5.0,90,0.00,,,0.00,,2013-02-07 04:22:00,
2013-02-06 23:32:00,53.0,50.0,30.19,NNE,22,1.0,5.0,91,0.00,,,0.00,,2013-02-07 04:32:00,
2013-02-06 23:42:00,53.0,50.0,30.19,NNE,22,1.0,5.0,91,0.00,,,0.00,,2013-02-07 04:42:00,
2013-02-06 23:53:00,53.0,50.0,30.20,NE,38,1.0,6.0,91,0.00,,,0.00,,2013-02-07 04:53:00,